Location: Eaton
(41.3139°N, 82.0207°W)
Time: 07:32:56
(UTC+00:00)

Cosmos 990 Rocket - Pass Details

Date: 17 June 2021
Orbit: 747 x 768 km, 74.0° (Epoch: 03 August)

Event Time Altitude Azimuth Distance (km) Brightness Sun altitude
Rises 07:13:41 0° 335° (NNW) 3,222 7.8 -20.9°
Reaches altitude 10° 07:16:07 10° 330° (NNW) 2,289 6.9 -20.7°
Maximum altitude 07:21:06 50° 256° (WSW) 957 4.2 -20.3°
Enters shadow 07:22:11 42° 218° (SW) 1,057 4.2 -20.2°
